Starlink 4608

operational
NORAD ID: 53621 Int'l Des: 2022-104 Owner: SPXS Country: US Constellation: starlink
LEOCIRCULAR

About Starlink 4608

Description loading...

Live Position

Loading 3D Globe...

Upcoming Passes

Altitude History

Altitude vs Time

uPlot chart will show altitude changes over time

Two-Line Element Set

1 53621U 22104AK 26062.58245512 -.00003121 00000-0 -17831-3 0 9996
2 53621 53.2173 261.4933 0001443 101.6366 258.4788 15.08794979194716
Epoch: Mar 3, 2026 • Age: 36 hours

Current Status

Altitude 540.5 km
Velocity 7.59 km/s
Sub-Earth Point 4.51°N, 85.5°W
Launch Date Aug 28, 2022
Age 3.5 years
Type internet

Technical Details

Classification Payload
Mass 300.00 kg
Dry Mass 290.00 kg
Total Mass 300.00 kg
Length 0.20 m
Diameter 2.80 m
Span 9.00 m
Shape Box + pan
Manufacturer SPXS
Bus Type Starlink
Phase Status In Orbit
Owner/State SPXS/US

Large Constellations

Loading constellations...